Weather History for KFIG - November, 2013

Change the Weather History Date:

Friday, November 1, 2013

  Actual Average (KDUJ) Record (KDUJ)
Temperature  
Mean Temperature 53 °F 44 °F  
Max Temperature 62 °F 53 °F 71 °F (1974)
Min Temperature 43 °F 36 °F 1 °F (2011)
Degree Days  
Heating Degree Days 12 21  
Month to date heating degree days 21  
Since 1 July heating degree days 764  
Cooling Degree Days 0 0  
Month to date cooling degree days 0  
Year to date cooling degree days 362  
Growing Degree Days 3 (Base 50)    
Moisture  
Dew Point 48 °F    
Average Humidity 75    
Maximum Humidity 96    
Minimum Humidity 47    
Precipitation  
Precipitation 0.25 in 0.12 in 2.28 in (1997)
Month to date precipitation 0.12  
Sea Level Pressure  
Sea Level Pressure 29.57 in    
Wind  
Wind Speed 13 mph (SW)    
Max Wind Speed 24 mph    
Max Gust Speed 43 mph    
Visibility 9 miles    
Events Rain    
T = Trace of Precipitation, MM = Missing Value Source: NWS Daily Summary

Daily Weather History Graph

Daily Weather History Graph

Search for Another Location

Airport or City:

Trip Planner

Search our weather history database for the weather conditions in past years. The results will help you decide how hot, cold, wet, or windy it might be!

Date:

Astronomy

Nov. 01, 2013 Rise Set
Actual Time 7:44 AM EDT 6:09 PM EDT
Civil Twilight 7:16 AM EDT 6:37 PM EDT
Nautical Twilight 6:43 AM EDT 7:10 PM EDT
Astronomical Twilight 6:11 AM EDT 7:42 PM EDT
Moon 5:34 AM EDT (11/1) 5:01 PM EDT (11/1)
Length of Visible Light 11h 21m
Length of Day
10h 24m
Waning Crescent, 4% of the Moon is Illuminated
Nov 1
Waning Crescent
Nov 3
New
Nov 10
First Quarter
Nov 17
Full
Nov 25
Last Quarter

Hourly Weather History & Observations

Time (EDT) Temp. Dew Point Humidity Pressure Visibility Wind Dir Wind Speed Gust Speed Precip Events Conditions
12:54 AM 57.9 °F 55.9 °F 93% 29.53 in 10.0 mi South 15.0 mph 20.7 mph 0.02 in Rain Light Rain
1:04 AM 57.2 °F 55.4 °F 94% 29.54 in 7.0 mi SSW 10.4 mph 21.9 mph 0.01 in Rain Rain
1:54 AM 57.9 °F 55.9 °F 93% 29.49 in 7.0 mi South 16.1 mph 23.0 mph 0.03 in Rain Light Rain
2:54 AM 59.0 °F 57.0 °F 93% 29.45 in 8.0 mi SSW 13.8 mph 21.9 mph 0.02 in Rain Light Rain
3:54 AM 61.0 °F 55.9 °F 83% 29.40 in 10.0 mi South 15.0 mph 24.2 mph 0.00 in   Overcast
4:54 AM 62.1 °F 57.0 °F 84% 29.42 in 7.0 mi WSW 13.8 mph 35.7 mph 0.01 in Rain Rain
4:58 AM 60.8 °F 57.2 °F 88% 29.45 in 2.0 mi West 16.1 mph 32.2 mph 0.11 in Rain Heavy Rain
5:12 AM 60.8 °F 55.4 °F 82% 29.46 in 10.0 mi SW 16.1 mph 33.4 mph 0.12 in Rain Light Rain
5:54 AM 57.0 °F 55.9 °F 96% 29.47 in 8.0 mi SSW 10.4 mph - 0.16 in Rain Light Rain
6:54 AM 55.9 °F 54.0 °F 93% 29.48 in 10.0 mi SSW 10.4 mph 17.3 mph 0.01 in Rain Light Rain
7:54 AM 55.9 °F 52.0 °F 87% 29.50 in 10.0 mi SW 15.0 mph 26.5 mph 0.00 in   Overcast
8:26 AM 55.4 °F 51.8 °F 88% 29.53 in 10.0 mi SW 17.3 mph 27.6 mph N/A   Overcast
8:54 AM 55.9 °F 52.0 °F 87% 29.55 in 10.0 mi SW 11.5 mph 23.0 mph N/A   Overcast
9:54 AM 55.9 °F 50.0 °F 80% 29.55 in 10.0 mi SW 15.0 mph 20.7 mph N/A   Overcast
10:54 AM 57.0 °F 48.9 °F 74% 29.57 in 10.0 mi WSW 13.8 mph 25.3 mph 0.00 in   Overcast
11:04 AM 57.2 °F 48.2 °F 72% 29.58 in 10.0 mi WSW 18.4 mph 32.2 mph N/A   Mostly Cloudy
11:54 AM 60.1 °F 41.0 °F 49% 29.58 in 10.0 mi SW 24.2 mph 42.6 mph N/A   Partly Cloudy
12:54 PM 60.1 °F 41.0 °F 49% 29.60 in 10.0 mi SW 16.1 mph 36.8 mph N/A   Scattered Clouds
1:54 PM 51.1 °F 41.0 °F 68% 29.60 in 10.0 mi WSW 17.3 mph 31.1 mph N/A   Scattered Clouds
2:54 PM 60.1 °F 39.9 °F 47% 29.61 in 10.0 mi West 13.8 mph 21.9 mph N/A   Scattered Clouds
3:54 PM 60.1 °F 39.9 °F 47% 29.61 in 10.0 mi West 11.5 mph 21.9 mph N/A   Partly Cloudy
4:54 PM 57.9 °F 39.0 °F 49% 29.64 in 10.0 mi West 8.1 mph 19.6 mph N/A   Mostly Cloudy
5:54 PM 57.0 °F 39.0 °F 51% 29.65 in 10.0 mi WSW 8.1 mph 17.3 mph N/A   Scattered Clouds
6:54 PM 54.0 °F 39.0 °F 57% 29.68 in 10.0 mi West 5.8 mph - N/A   Mostly Cloudy
7:54 PM 53.1 °F 39.0 °F 59% 29.69 in 10.0 mi Calm Calm - N/A   Scattered Clouds
8:54 PM 51.1 °F 39.9 °F 66% 29.71 in 10.0 mi SSW 3.5 mph - N/A   Scattered Clouds
9:54 PM 48.0 °F 39.9 °F 74% 29.71 in 10.0 mi Calm Calm - N/A   Partly Cloudy
10:54 PM 44.1 °F 39.9 °F 85% 29.71 in 10.0 mi Calm Calm - N/A   Mostly Cloudy
11:54 PM 43.0 °F 39.9 °F 89% 29.70 in 10.0 mi Calm Calm - N/A   Mostly Cloudy